This is the latest recevied weather packets stored in our database for station/object W4MSI. If no packets are shown the sender has not sent any weather packets the latest 10 day(s).
| Time | Temp. | Humidity | Pressure | Rain* | Wind** | Luminosity | Snow |
|---|---|---|---|---|---|---|---|
| 1778054159 | 10.56° C | 98% | 1008.6 hPa | 1.78 mm | - | 0 W/m² | - |
| 1778053855 | 10.56° C | 98% | 1007.7 hPa | 0 mm | - | 0 W/m² | - |
| 1778053553 | 10.56° C | 98% | 1007.5 hPa | 0 mm | - | 0 W/m² | - |
| 1778053250 | 10.56° C | 98% | 1007.7 hPa | 1.27 mm | - | 0 W/m² | - |
| 1778052947 | 10.56° C | 97% | 1007.8 hPa | 1.78 mm | - | 0 W/m² | - |
| 1778052644 | 10.56° C | 98% | 1008.1 hPa | 1.78 mm | - | 0 W/m² | - |
| 1778052341 | 10.56° C | 97% | 1007.3 hPa | 4.83 mm | - | 0 W/m² | - |
| 1778052039 | 10.56° C | 97% | 1007.4 hPa | 4.83 mm | - | 0 W/m² | - |
| 1778051737 | 10.56° C | 97% | 1007.6 hPa | 3.56 mm | - | 0 W/m² | - |
| 1778051434 | 10.56° C | 97% | 1007.6 hPa | 1.27 mm | - | 0 W/m² | - |
| 1778051131 | 10.56° C | 97% | 1007.4 hPa | 1.78 mm | - | 0 W/m² | - |
| 1778050828 | 10.56° C | 97% | 1007.7 hPa | 4.83 mm | - | 0 W/m² | - |
| 1778050526 | 11.11° C | 97% | 1007.4 hPa | 6.1 mm | - | 0 W/m² | - |
| 1778050222 | 11.11° C | 97% | 1007 hPa | 3.05 mm | - | 0 W/m² | - |
| 1778049919 | 11.11° C | 97% | 1007.2 hPa | 0 mm | - | 0 W/m² | - |
| 1778049615 | 11.11° C | 97% | 1007.4 hPa | 0 mm | - | 0 W/m² | - |
| 1778049313 | 11.11° C | 96% | 1007.5 hPa | 0 mm | - | 0 W/m² | - |
| 1778049010 | 11.11° C | 97% | 1007.5 hPa | 0 mm | - | 0 W/m² | - |
| 1778048709 | 11.11° C | 96% | 1007.2 hPa | 0 mm | - | 0 W/m² | - |
| 1778048405 | 11.67° C | 96% | 1007.4 hPa | 0 mm | - | 0 W/m² | - |
| 1778048101 | 11.67° C | 96% | 1007.2 hPa | 0 mm | - | 0 W/m² | - |
| 1778047799 | 11.67° C | 96% | 1007.4 hPa | 0 mm | - | 0 W/m² | - |
| 1778047497 | 12.22° C | 96% | 1007.2 hPa | 1.27 mm | - | 0 W/m² | - |
| 1778047194 | 12.22° C | 96% | 1007.3 hPa | 1.27 mm | - | 0 W/m² | - |
| 1778046891 | 12.78° C | 95% | 1006.7 hPa | 3.05 mm | - | 0 W/m² | - |
* Rain latest hour (hover to see other rain measurements)
** Current wind speed in m/s (hover to see current wind gust speed)